TimeCST,TemperatureF,Dew PointF,Humidity,Sea Level PressureIn,VisibilityMPH,Wind Direction,Wind SpeedMPH,Gust SpeedMPH,PrecipitationIn,Events,Conditions,WindDirDegrees,DateUTC
12:56 AM,36.0,28.0,73,30.29,10.0,South,11.5,-,N/A,,Clear,190,2013-01-19 06:56:00
1:56 AM,36.9,28.0,70,30.29,10.0,South,11.5,-,N/A,,Clear,180,2013-01-19 07:56:00
2:56 AM,36.9,28.0,70,30.27,10.0,South,11.5,-,N/A,,Clear,170,2013-01-19 08:56:00
3:56 AM,36.9,29.1,74,30.27,10.0,SSW,8.1,-,N/A,,Clear,200,2013-01-19 09:56:00
4:56 AM,36.9,29.1,74,30.27,10.0,SSW,10.4,-,N/A,,Clear,210,2013-01-19 10:56:00
5:56 AM,36.0,29.1,76,30.27,10.0,SSW,10.4,-,N/A,,Clear,200,2013-01-19 11:56:00
6:56 AM,36.0,29.1,76,30.27,10.0,South,10.4,-,N/A,,Clear,190,2013-01-19 12:56:00
7:56 AM,37.9,30.0,73,30.26,10.0,SSW,11.5,-,N/A,,Clear,200,2013-01-19 13:56:00
8:56 AM,41.9,32.0,68,30.26,10.0,SSW,13.8,-,N/A,,Clear,200,2013-01-19 14:56:00
9:56 AM,46.9,34.0,61,30.25,10.0,SW,13.8,20.7,N/A,,Clear,220,2013-01-19 15:56:00
10:56 AM,50.9,34.0,52,30.20,10.0,SW,20.7,31.1,N/A,,Clear,220,2013-01-19 16:56:00
11:56 AM,54.0,32.9,45,30.14,10.0,SSW,23.0,34.5,N/A,,Clear,210,2013-01-19 17:56:00
12:56 PM,54.9,32.9,43,30.11,10.0,SSW,20.7,29.9,N/A,,Clear,210,2013-01-19 18:56:00
1:56 PM,56.8,32.0,39,30.08,10.0,SSW,26.5,33.4,N/A,,Clear,210,2013-01-19 19:56:00
2:56 PM,56.8,32.0,39,30.06,10.0,SW,28.8,38.0,N/A,,Clear,220,2013-01-19 20:56:00
3:56 PM,54.9,32.0,42,30.05,10.0,SSW,17.3,26.5,N/A,,Clear,210,2013-01-19 21:56:00
4:56 PM,50.9,32.9,50,30.04,10.0,SSW,12.7,21.9,N/A,,Clear,200,2013-01-19 22:56:00
5:56 PM,50.0,32.0,50,30.04,10.0,SSW,13.8,21.9,N/A,,Clear,210,2013-01-19 23:56:00
6:56 PM,45.9,32.0,58,30.08,10.0,SW,8.1,-,N/A,,Clear,220,2013-01-20 00:56:00
7:56 PM,43.9,32.0,63,30.09,10.0,SSW,9.2,-,N/A,,Clear,210,2013-01-20 01:56:00
8:56 PM,45.9,31.1,56,30.08,10.0,SW,13.8,-,N/A,,Clear,220,2013-01-20 02:56:00
9:56 PM,46.9,32.0,56,30.08,10.0,SW,13.8,21.9,N/A,,Clear,230,2013-01-20 03:56:00
10:56 PM,45.9,32.9,61,30.09,10.0,WSW,15.0,-,N/A,,Clear,240,2013-01-20 04:56:00
11:56 PM,45.0,34.9,68,30.09,10.0,WSW,15.0,-,N/A,,Clear,250,2013-01-20 05:56:00